Flag for U.S.A. Weather past 2 weeks in Salinas, California, U.S.A.

Now
58 °F

Clear.


Feels Like: 57 °F
Forecast: 54 / 77 °F
Wind: 6 mph from West

Location: Salinas Municipal Airport

Current Time: Sep 5, 2015 at 4:03:17 AM

Latest Report: Sep 5, 2015 at 2:53 AM


Visibility: 10 mi

Pressure: 29.96 "Hg

Humidity: 78%

Dew point: 51 °F

Location of SalinasLocation

Historic Weather in Salinas — Graph

°F

Salinas temperature yesterday

Maximum temperature yesterday: 69 °F (at 1:53 PM)
Minimum temperature yesterday: 56 °F (at 3:53 AM)
Average temperature yesterday: 62 °F

Past Weeks' High & Low Weather Summary

 TemperatureHumidityPressure
High89 °F (Aug 28, 1:53 PM)96% (Aug 29, 5:53 AM)30.08 "Hg (Aug 29, 5:53 AM)
Low56 °F (Sep 4, 3:53 AM)28% (Aug 28, 10:53 AM)29.89 "Hg (Aug 28, 3:53 PM)
Average66 °F70%29.98 "Hg
* Reported Aug 21 2:53 AM — Sep 5 2:53 AM, Salinas, Weather by CustomWeather, © 2015

Note: Actual official high and low records may vary slightly from our data, if they occured in-between our weather recording intervals... More about our weather records

Advertising

Salinas weather history for previous 24 hours

 ConditionsComfort  
Time TempWeatherWind HumidityBarometerVisibility
2:53 AM
Sat, Sep 5
58 °FClear.6 mph78%29.96 "Hg10 mi
1:53 AM59 °FPassing clouds.8 mph75%29.96 "Hg10 mi
12:53 AM59 °FPassing clouds.9 mph72%29.97 "Hg10 mi
11:53 PM
Fri, Sep 4
59 °FPassing clouds.8 mph75%29.97 "Hg10 mi
10:53 PM60 °FClear.8 mph72%29.97 "Hg10 mi
9:53 PM60 °FClear.10 mph72%29.97 "Hg10 mi
8:53 PM60 °FClear.13 mph72%29.96 "Hg10 mi
7:53 PM61 °FSunny.16 mph70%29.93 "Hg10 mi
6:53 PM63 °FSunny.16 mph63%29.93 "Hg10 mi
5:53 PM65 °FSunny.16 mph61%29.94 "Hg10 mi
4:53 PM66 °FSunny.17 mph59%29.94 "Hg10 mi
3:53 PM68 °FSunny.17 mph55%29.94 "Hg10 mi
2:53 PM67 °FSunny.15 mph53%29.94 "Hg10 mi
1:53 PM69 °FSunny.16 mph47%29.95 "Hg10 mi
12:53 PM68 °FSunny.15 mph49%29.95 "Hg10 mi
11:53 AM67 °FSunny.15 mph51%29.96 "Hg10 mi
10:53 AM65 °FSunny.10 mph54%29.96 "Hg10 mi
9:53 AM63 °FScattered clouds.6 mph60%29.96 "Hg9 mi
8:53 AM61 °FOvercast.9 mph65%29.95 "Hg8 mi
7:53 AM58 °FOvercast.7 mph72%29.94 "Hg8 mi
6:53 AM59 °FOvercast.8 mph72%29.92 "Hg8 mi
5:53 AM59 °FOvercast.8 mph72%29.91 "Hg9 mi
4:53 AM58 °FOvercast.5 mph75%29.90 "Hg9 mi
Weather by CustomWeather, © 2015

See weather overviewHow to use our weather pages